Garissa, Kenya

2:43 PM EAT on November 19, 2017 (GMT +0300)
Garissa

Weather History for HKGA - March, 2014

Change the Weather History Date:

Tuesday, March 11, 2014

  Actual Average Record
Temperature  
Mean Temperature 88 °F -  
Max Temperature 98 °F 100 °F - ()
Min Temperature 77 °F 76 °F - ()
Cooling Degree Days 22    
Growing Degree Days 38 (Base 50)    
Moisture  
Dew Point 69 °F    
Average Humidity 53    
Maximum Humidity 79    
Minimum Humidity 25    
Precipitation  
Precipitation 0.00 in - - ()
Sea Level Pressure  
Sea Level Pressure 29.80 in    
Wind  
Wind Speed 7 mph ()    
Max Wind Speed 16 mph    
Max Gust Speed -    
Visibility 10.3 miles    
Events      
T = Trace of Precipitation, MM = Missing Value Source: Averaged Metar Reports

Daily Weather History Graph

Daily Weather History Graph

Search for Another Location

Airport or City:

Trip Planner

Search our weather history database for the weather conditions in past years. The results will help you decide how hot, cold, wet, or windy it might be!

Date:

Astronomy

Mar. 11, 2014 Rise Set
Actual Time 6:28 AM EAT 6:34 PM EAT
Civil Twilight 6:07 AM EAT 6:55 PM EAT
Nautical Twilight 5:43 AM EAT 7:19 PM EAT
Astronomical Twilight 5:19 AM EAT 7:43 PM EAT
Moon 2:41 PM EAT (3/11) 2:15 AM EAT (3/11)
Length of Visible Light 12h 48m
Length of Day
12h 06m
Waxing Gibbous, 76% of the Moon is Illuminated
Mar 11
Waxing Gibbous
Mar 16
Full
Mar 24
Last Quarter
Mar 30
New
Apr 7
First Quarter

Hourly Weather History & Observations

Time (EAT) Temp. Heat Index Dew Point Humidity Pressure Visibility Wind Dir Wind Speed Gust Speed Precip Events Conditions
12:00 AM 85 °F - 71 °F 53% 29.79 in 19 mi SE 12.7 mph - -  
1:00 AM 82.4 °F 86.3 °F 69.8 °F 66% 29.80 in - SE 11.5 mph - N/A   Clear
3:00 AM 80 °F - 68 °F 60% 29.81 in 0 mi South 12.7 mph - -  
4:00 AM 80.6 °F 83.9 °F 69.8 °F 70% 29.80 in - SE 6.9 mph - N/A   Clear
6:00 AM 78 °F - 72 °F 78% 29.82 in 19 mi East 6.9 mph - -   Scattered Clouds
7:00 AM 78.8 °F - 71.6 °F 78% 29.86 in 6.2 mi SE 5.8 mph - N/A   Partly Cloudy
8:00 AM 80.6 °F 85.4 °F 73.4 °F 79% 29.83 in 6.2 mi SE 8.1 mph - N/A   Mostly Cloudy
9:00 AM 83 °F - 72 °F 61% 29.89 in 25 mi SE 6.9 mph - -   Mostly Cloudy
10:00 AM 86.0 °F 90.4 °F 69.8 °F 58% 29.89 in 6.2 mi South 4.6 mph - N/A   Mostly Cloudy
11:00 AM 87.8 °F 92.6 °F 69.8 °F 55% 29.86 in 6.2 mi SW 9.2 mph - N/A   Mostly Cloudy
2:00 PM 95.0 °F 99.5 °F 68.0 °F 41% 29.80 in 6.2 mi Calm Calm - N/A   Mostly Cloudy
3:00 PM 95 °F - 67 °F 30% 29.74 in 25 mi North 3.5 mph - -   Mostly Cloudy
5:00 PM 98.6 °F 102.8 °F 66.2 °F 35% 29.71 in 6.2 mi NE 9.2 mph - N/A   Scattered Clouds
6:00 PM 97 °F - 65 °F 25% 29.70 in 19 mi Calm Calm - -   Scattered Clouds
7:00 PM 96.8 °F 99.0 °F 64.4 °F 34% 29.74 in - ENE 11.5 mph - N/A   Clear
8:00 PM 93.2 °F 96.2 °F 66.2 °F 41% 29.74 in - Calm Calm - N/A   Clear
9:00 PM 90 °F - 69 °F 41% 29.75 in 19 mi Calm Calm - -  
10:00 PM 89.6 °F 93.4 °F 68.0 °F 49% 29.80 in - Calm Calm - N/A   Clear
11:00 PM 87.8 °F 92.6 °F 69.8 °F 55% 29.80 in - ESE 16.1 mph - N/A   Clear